Weather History for KPOF - September, 2013

Change the Weather History Date:

Thursday, September 19, 2013

  Actual Average (KCGI) Record (KCGI)
Temperature  
Mean Temperature 81 °F 67 °F  
Max Temperature 90 °F 80 °F 94 °F (1972)
Min Temperature 72 °F 55 °F 40 °F (1973)
Degree Days  
Heating Degree Days 0 2  
Month to date heating degree days 11  
Since 1 July heating degree days 12  
Cooling Degree Days 16 4  
Month to date cooling degree days 128  
Year to date cooling degree days 1388  
Growing Degree Days 31 (Base 50)    
Moisture  
Dew Point 70 °F    
Average Humidity 72    
Maximum Humidity 87    
Minimum Humidity 54    
Precipitation  
Precipitation 0.00 in 0.11 in 1.26 in (1975)
Month to date precipitation 2.11  
Year to date precipitation 33.16  
Sea Level Pressure  
Sea Level Pressure 29.98 in    
Wind  
Wind Speed 6 mph (South)    
Max Wind Speed 12 mph    
Max Gust Speed 17 mph    
Visibility 9 miles    
Events Thunderstorm    
T = Trace of Precipitation, MM = Missing Value Source: NWS Daily Summary

Daily Weather History Graph

Daily Weather History Graph

Search for Another Location

Airport or City:

Trip Planner

Search our weather history database for the weather conditions in past years. The results will help you decide how hot, cold, wet, or windy it might be!

Date:

Astronomy

Sep. 19, 2013 Rise Set
Actual Time 6:46 AM CDT 7:02 PM CDT
Civil Twilight 6:21 AM CDT 7:28 PM CDT
Nautical Twilight 5:50 AM CDT 7:58 PM CDT
Astronomical Twilight 5:19 AM CDT 8:29 PM CDT
Moon 7:02 PM CDT (9/19) 6:54 AM CDT (9/19)
Length of Visible Light 13h 07m
Length of Day
12h 15m
Full, 100% of the Moon is Illuminated
Sep 19
Full
Sep 26
Last Quarter
Oct 4
New
Oct 11
First Quarter
Oct 18
Full

Hourly Weather History & Observations

Time (CDT) Temp. Heat Index Dew Point Humidity Pressure Visibility Wind Dir Wind Speed Gust Speed Precip Events Conditions
12:53 AM 77.0 °F - 70.0 °F 79% 30.00 in 9.0 mi South 4.6 mph - N/A   Clear
1:53 AM 75.9 °F - 69.1 °F 79% 30.00 in 9.0 mi South 4.6 mph - N/A   Partly Cloudy
2:53 AM 73.9 °F - 70.0 °F 87% 30.01 in 8.0 mi Calm Calm - 0.00 in   Partly Cloudy
3:53 AM 73.0 °F - 68.0 °F 84% 30.01 in 7.0 mi SSE 3.5 mph - N/A   Clear
4:53 AM 72.0 °F - 68.0 °F 87% 30.01 in 7.0 mi SSE 4.6 mph - N/A   Clear
5:53 AM 73.0 °F - 68.0 °F 84% 30.01 in 7.0 mi South 3.5 mph - N/A   Clear
6:53 AM 72.0 °F - 68.0 °F 87% 30.02 in 6.0 mi South 5.8 mph - N/A   Clear
7:53 AM 73.0 °F - 69.1 °F 87% 30.04 in 5.0 mi SSE 4.6 mph - N/A   Clear
8:53 AM 75.9 °F - 70.0 °F 82% 30.04 in 7.0 mi South 9.2 mph - N/A   Clear
9:53 AM 78.1 °F - 71.1 °F 79% 30.04 in 8.0 mi SSW 9.2 mph - N/A   Partly Cloudy
10:53 AM 81.0 °F 85.2 °F 72.0 °F 74% 30.04 in 9.0 mi SSW 9.2 mph - N/A   Partly Cloudy
11:53 AM 84.0 °F 89.6 °F 72.0 °F 67% 30.03 in 10.0 mi SSW 11.5 mph 17.3 mph N/A   Partly Cloudy
12:18 PM 84.2 °F 90.9 °F 73.4 °F 70% 30.03 in 9.0 mi SSW 10.4 mph - N/A   Mostly Cloudy
12:27 PM 84.2 °F 90.9 °F 73.4 °F 70% 30.03 in 9.0 mi SSW 11.5 mph - N/A   Scattered Clouds
12:53 PM 84.9 °F 91.4 °F 73.0 °F 67% 30.01 in 10.0 mi South 10.4 mph - N/A   Clear
1:53 PM 87.1 °F 94.5 °F 73.0 °F 63% 29.98 in 10.0 mi SSW 8.1 mph - N/A   Partly Cloudy
2:53 PM 89.1 °F 97.0 °F 73.0 °F 59% 29.96 in 10.0 mi South 11.5 mph - N/A   Partly Cloudy
3:53 PM 90.0 °F 96.4 °F 71.1 °F 54% 29.94 in 10.0 mi SSW 10.4 mph - N/A   Clear
4:08 PM 89.6 °F 96.2 °F 71.6 °F 55% 29.95 in 9.0 mi SSW 8.1 mph - N/A Thunderstorm Clear
4:23 PM 87.8 °F 93.8 °F 71.6 °F 58% 29.95 in 10.0 mi South 9.2 mph - N/A   Clear
4:53 PM 88.0 °F 94.7 °F 72.0 °F 59% 29.93 in 9.0 mi South 8.1 mph - N/A   Clear
5:53 PM 84.0 °F 88.4 °F 70.0 °F 63% 29.92 in 10.0 mi South 5.8 mph - N/A   Clear
6:53 PM 82.0 °F 85.9 °F 70.0 °F 67% 29.92 in 9.0 mi South 6.9 mph - N/A   Clear
7:53 PM 81.0 °F 83.8 °F 68.0 °F 65% 29.91 in 10.0 mi South 8.1 mph - N/A   Clear
8:53 PM 79.0 °F - 68.0 °F 69% 29.92 in 9.0 mi SSE 5.8 mph - N/A   Clear
9:53 PM 78.1 °F - 68.0 °F 71% 29.95 in 10.0 mi Calm Calm - N/A   Clear
10:53 PM 77.0 °F - 69.1 °F 76% 29.94 in 7.0 mi Calm Calm - N/A   Clear
11:53 PM 75.0 °F - 70.0 °F 84% 29.93 in 8.0 mi Calm Calm - N/A   Clear